User: anonymous
Location: Albany
(35.0000°S, 118.0000°E)
Time: 15:57:51
(UTC-04:00)
Language:

Cosmos 2227 Rocket - Orbit

View from above orbital plane
View from above orbital plane
View from above satellite
View from above satellite

Ground track
Ground track

The orbit data is extracted from the following two-line orbital elements,

1 22285U 92093B   14205.73974868  .00000256  00000-0  15691-3 0  3550
2 22285 071.0206 272.5431 0006168 292.4748 067.5722 14.14910440112818
Epoch (UTC): 24 July 2014 17:45:14
Eccentricity: 0.0006168
inclination: 71.0206°
perigee height: 838 km
apogee height: 847 km
right ascension of ascending node: 272.5431°
argument of perigee: 292.4748°
revolutions per day: 14.14910440
mean anomaly at epoch: 67.5722°
orbit number at epoch: 11281

The dashed part of the orbit path shows where the satellite is in the earth's shadow,  

DLR